SURFSAT (43614 NORAD) Tracking and Keplerian Element Data

This shows tracking and keplerian element data for the satellite.

Feedback or suggestion? Click here.




ElementValue
Catalog43614
NameSURFSAT
Epoch Orbit5258
Epoch Day235.91482177
Epoch Year2019
RAAN30.9871
Inclination93.0265
Eccentricity0.00181
Argument of Perigee56.1286
Mean Anonmoly304.1687
Mean Motion15.37735317
Decay Rate1.455E-05
L11 43614U 18070B 19235.91482177 .00001455 00000-0 39296-4 0 9991
L22 43614 93.0265 30.9871 0018100 56.1286 304.1687 15.37735317 52582

Live tracking and technical data element details for SURFSAT (NORAD 43614). SURFSAT can be tracked NOW for your location showing map with azimuth and elevation plus other details from your city location.

Track the satellite on the map from your city or location and see movement details for azimuth, elevation, latitude, longitude, range, height, and movement on the map or in text.







IsCatalogInMostPopularTable: catalog: 43614, numindb: 159
Update: records affected: 1



GetName: 43614 SURFSAT

Hit Count: updated at: Sun, 25 Aug 2019 19:00:50 GMT